�������l�o���
Date,Time,MP-1(��Sv/h),MP-2(��Sv/h),MP-3(��Sv/h),MP-4(��Sv/h),MP-5(��Sv/h),MP-6(��Sv/h),MP-7(��Sv/h),MP-8(��Sv/h),����,����(m/s),���J
2014/12/20,00:00,1.980,3.620,3.922,3.558,3.748,1.137,1.893,2.158,��쐼,2.4,��
2014/12/20,00:10,1.980,3.613,3.918,3.558,3.747,1.140,1.893,2.158,�쐼,2.9,��
2014/12/20,00:20,1.978,3.618,3.920,3.557,3.748,1.140,1.895,2.157,�쐼,3.6,��
2014/12/20,00:30,1.978,3.618,3.925,3.557,3.747,1.142,1.895,2.158,�쐼,3.3,��
2014/12/20,00:40,1.978,3.618,3.915,3.558,3.748,1.140,1.895,2.157,�쐼,3.3,��
2014/12/20,00:50,1.982,3.620,3.918,3.557,3.745,1.138,1.895,2.160,�쐼,3.4,��
2014/12/20,01:00,1.980,3.620,3.917,3.558,3.745,1.140,1.895,2.158,�쐼,3.3,��
2014/12/20,01:10,1.978,3.618,3.918,3.557,3.747,1.138,1.893,2.157,�쐼,2.8,��
2014/12/20,01:20,1.978,3.618,3.917,3.558,3.745,1.142,1.892,2.157,�쐼,3.1,��
2014/12/20,01:30,1.980,3.622,3.915,3.557,3.748,1.142,1.895,2.157,��쐼,3.1,��
2014/12/20,01:40,1.982,3.620,3.917,3.555,3.745,1.137,1.897,2.158,��쐼,2.9,��
2014/12/20,01:50,1.982,3.620,3.918,3.555,3.748,1.140,1.897,2.157,��쐼,2.8,��
2014/12/20,02:00,1.978,3.617,3.918,3.553,3.747,1.138,1.893,2.157,��,2.4,��
2014/12/20,02:10,1.978,3.615,3.918,3.553,3.738,1.142,1.895,2.155,��,1.6,��
2014/12/20,02:20,1.980,3.620,3.917,3.557,3.743,1.142,1.895,2.157,��,1.1,��
2014/12/20,02:30,1.978,3.620,3.918,3.557,3.743,1.140,1.895,2.160,��쐼,1.0,��
2014/12/20,02:40,1.978,3.615,3.918,3.557,3.742,1.140,1.895,2.158,��,1.0,��
2014/12/20,02:50,1.978,3.618,3.922,3.555,3.743,1.140,1.895,2.157,��,1.0,��
2014/12/20,03:00,1.978,3.618,3.922,3.555,3.742,1.140,1.897,2.162,��쐼,1.1,��
2014/12/20,03:10,1.977,3.622,3.918,3.557,3.748,1.140,1.895,2.158,��쓌,1.3,��
2014/12/20,03:20,1.980,3.620,3.917,3.557,3.747,1.140,1.893,2.162,��쓌,1.5,��
2014/12/20,03:30,1.980,3.613,3.915,3.553,3.753,1.138,1.895,2.155,��,1.3,��
2014/12/20,03:40,1.977,3.618,3.922,3.555,3.750,1.140,1.892,2.160,��,1.6,��
2014/12/20,03:50,1.978,3.615,3.923,3.557,3.750,1.140,1.895,2.158,��,1.2,��
2014/12/20,04:00,1.978,3.617,3.918,3.560,3.748,1.142,1.895,2.157,��,2.2,��
2014/12/20,04:10,1.983,3.622,3.922,3.558,3.747,1.142,1.898,2.158,��쐼,2.3,��
2014/12/20,04:20,1.983,3.615,3.923,3.555,3.747,1.142,1.898,2.160,��쐼,2.5,��
2014/12/20,04:30,1.980,3.615,3.918,3.552,3.747,1.140,1.895,2.155,��쐼,3.0,��
2014/12/20,04:40,1.983,3.615,3.918,3.560,3.747,1.140,1.893,2.155,��,2.9,��
2014/12/20,04:50,1.980,3.617,3.918,3.558,3.743,1.142,1.897,2.157,��,3.6,��
2014/12/20,05:00,1.982,3.618,3.918,3.557,3.750,1.142,1.895,2.157,��,4.1,��
2014/12/20,05:10,1.983,3.618,3.923,3.557,3.745,1.140,1.895,2.158,��,5.3,��
2014/12/20,05:20,1.983,3.620,3.922,3.558,3.745,1.142,1.895,2.155,��,5.8,��
2014/12/20,05:30,1.985,3.623,3.923,3.562,3.745,1.142,1.898,2.158,��,6.3,��
2014/12/20,05:40,1.982,3.620,3.918,3.558,3.747,1.142,1.898,2.157,��,6.3,��
2014/12/20,05:50,1.985,3.620,3.922,3.562,3.752,1.140,1.897,2.157,��,7.2,��
2014/12/20,06:00,1.983,3.620,3.923,3.562,3.752,1.138,1.897,2.155,��,7.8,��
2014/12/20,06:10,1.985,3.622,3.923,3.565,3.748,1.140,1.898,2.157,��,10.7,��
2014/12/20,06:20,1.982,3.625,3.920,3.562,3.752,1.143,1.897,2.155,��,12.6,��
2014/12/20,06:30,1.985,3.623,3.923,3.562,3.752,1.145,1.900,2.155,��,11.5,��
2014/12/20,06:40,1.985,3.628,3.923,3.563,3.753,1.147,1.898,2.158,��,11.6,��
2014/12/20,06:50,1.983,3.622,3.925,3.547,3.752,1.143,1.902,2.157,��쐼,11.0,��
2014/12/20,07:00,1.985,3.623,3.925,3.560,3.753,1.147,1.900,2.158,��,11.0,��
2014/12/20,07:10,1.983,3.628,3.925,3.565,3.752,1.145,1.902,2.157,��쐼,11.0,��
2014/12/20,07:20,1.987,3.625,3.925,3.565,3.753,1.147,1.900,2.158,��,10.5,��
2014/12/20,07:30,1.987,3.627,3.928,3.568,3.753,1.145,1.900,2.157,��,11.6,��
2014/12/20,07:40,1.985,3.628,3.933,3.567,3.752,1.145,1.900,2.157,��,11.0,��
2014/12/20,07:50,1.983,3.627,3.930,3.565,3.753,1.143,1.902,2.155,��쐼,11.0,��
2014/12/20,08:00,1.985,3.630,3.932,3.568,3.757,1.145,1.900,2.158,��쐼,11.0,��
2014/12/20,08:10,1.985,3.632,3.927,3.572,3.753,1.143,1.903,2.157,��쐼,10.8,��
2014/12/20,08:20,1.988,3.630,3.932,3.570,3.757,1.143,1.902,2.155,��쐼,10.8,��
2014/12/20,08:30,1.988,3.637,3.933,3.572,3.757,1.142,1.902,2.155,��,11.0,��
2014/12/20,08:40,1.985,3.632,3.933,3.572,3.757,1.145,1.903,2.158,��,10.7,��
2014/12/20,08:50,1.988,3.630,3.935,3.568,3.755,1.147,1.902,2.158,��,9.9,��
2014/12/20,09:00,1.988,3.632,3.935,3.570,3.760,1.145,1.902,2.155,��,10.1,��
2014/12/20,09:10,1.990,3.632,3.940,3.568,3.758,1.142,1.903,2.158,��,10.2,��
2014/12/20,09:20,1.987,3.630,3.938,3.567,3.762,1.145,1.900,2.158,��,8.5,��
2014/12/20,09:30,1.988,3.633,3.940,3.572,3.763,1.147,1.905,2.158,��,8.8,��
2014/12/20,09:40,1.988,3.633,3.942,3.572,3.765,1.145,1.903,2.158,��,7.5,��
2014/12/20,09:50,1.988,3.633,3.942,3.572,3.767,1.147,1.903,2.157,��,7.7,��
2014/12/20,10:00,1.993,3.630,3.940,3.575,3.763,1.145,1.905,2.157,��쐼,7.4,��
2014/12/20,10:10,1.988,3.632,3.940,3.573,3.762,1.147,1.903,2.157,��,8.2,��
2014/12/20,10:20,1.988,3.640,3.942,3.573,3.763,1.145,1.905,2.157,��,8.9,��
2014/12/20,10:30,1.988,3.640,3.938,3.573,3.762,1.147,1.903,2.157,��,8.8,��
2014/12/20,10:40,1.988,3.638,3.943,3.572,3.762,1.148,1.905,2.158,��,9.1,��
2014/12/20,10:50,1.992,3.637,3.947,3.573,3.763,1.145,1.905,2.153,��,9.1,��
2014/12/20,11:00,1.992,3.640,3.945,3.572,3.765,1.147,1.905,2.155,��,10.4,��
2014/12/20,11:10,1.988,3.637,3.943,3.575,3.765,1.148,1.905,2.160,��,9.3,��
2014/12/20,11:20,1.988,3.637,3.943,3.575,3.765,1.148,1.905,2.160,��,11.5,��
2014/12/20,11:30,1.992,3.635,3.943,3.578,3.768,1.150,1.905,2.160,��,11.3,��
2014/12/20,11:40,1.993,3.640,3.943,3.578,3.772,1.150,1.905,2.157,��,10.4,��
2014/12/20,11:50,1.992,3.645,3.943,3.578,3.767,1.148,1.905,2.160,��,10.7,��
2014/12/20,12:00,1.993,3.642,3.945,3.577,3.772,1.145,1.908,2.158,��,9.9,��
2014/12/20,12:10,1.995,3.647,3.950,3.577,3.770,1.150,1.907,2.158,��,10.2,��
2014/12/20,12:20,1.990,3.647,3.948,3.577,3.777,1.148,1.907,2.160,��,10.8,��
2014/12/20,12:30,1.995,3.643,3.948,3.577,3.770,1.150,1.907,2.162,��,8.2,��
2014/12/20,12:40,1.993,3.642,3.948,3.578,3.773,1.148,1.908,2.162,��,9.3,��
2014/12/20,12:50,1.995,3.643,3.952,3.580,3.775,1.150,1.908,2.160,��,10.2,��
2014/12/20,13:00,1.993,3.647,3.950,3.582,3.775,1.150,1.907,2.158,��,9.3,��
2014/12/20,13:10,1.995,3.645,3.948,3.582,3.772,1.152,1.908,2.158,��,10.4,��
2014/12/20,13:20,1.993,3.647,3.950,3.580,3.770,1.152,1.907,2.158,��,9.7,��
2014/12/20,13:30,1.998,3.645,3.950,3.583,3.768,1.148,1.907,2.157,��,11.0,��
2014/12/20,13:40,1.998,3.643,3.952,3.582,3.768,1.153,1.907,2.158,��,10.2,��
2014/12/20,13:50,1.995,3.645,3.950,3.582,3.772,1.150,1.907,2.160,��,10.7,��
2014/12/20,14:00,1.995,3.647,3.952,3.580,3.773,1.152,1.910,2.158,��,11.3,��
2014/12/20,14:10,1.993,3.645,3.952,3.580,3.773,1.150,1.908,2.162,��,9.9,��
2014/12/20,14:20,1.993,3.643,3.950,3.580,3.772,1.153,1.910,2.160,��,10.2,��
2014/12/20,14:30,1.993,3.645,3.955,3.582,3.772,1.153,1.908,2.158,��,9.3,��
2014/12/20,14:40,1.997,3.647,3.953,3.583,3.775,1.157,1.910,2.158,��,9.3,��
2014/12/20,14:50,1.993,3.647,3.950,3.582,3.772,1.157,1.907,2.162,��,7.9,��
2014/12/20,15:00,1.998,3.645,3.952,3.580,3.772,1.157,1.908,2.160,��,8.0,��
2014/12/20,15:10,1.998,3.643,3.953,3.583,3.775,1.158,1.912,2.160,��,6.8,��
2014/12/20,15:20,1.998,3.647,3.957,3.583,3.777,1.158,1.910,2.160,��,6.8,��
2014/12/20,15:30,1.997,3.647,3.955,3.578,3.773,1.158,1.910,2.162,��,6.8,��
2014/12/20,15:40,1.995,3.647,3.957,3.580,3.775,1.162,1.910,2.162,��,7.4,��
2014/12/20,15:50,1.998,3.647,3.955,3.580,3.778,1.158,1.910,2.160,��,5.4,��
2014/12/20,16:00,1.997,3.645,3.950,3.580,3.775,1.158,1.908,2.158,��,6.8,��
2014/12/20,16:10,1.997,3.645,3.952,3.577,3.772,1.158,1.908,2.157,��,5.5,��
2014/12/20,16:20,2.000,3.650,3.952,3.582,3.768,1.158,1.910,2.160,��,5.4,��
2014/12/20,16:30,2.000,3.647,3.952,3.580,3.777,1.160,1.910,2.160,��,5.0,��
2014/12/20,16:40,1.998,3.643,3.957,3.577,3.777,1.160,1.910,2.160,��,5.5,��
2014/12/20,16:50,1.993,3.645,3.957,3.582,3.775,1.158,1.910,2.162,��,6.9,��
2014/12/20,17:00,1.995,3.647,3.953,3.583,3.778,1.162,1.912,2.160,��,8.5,��
2014/12/20,17:10,1.998,3.647,3.952,3.582,3.777,1.162,1.910,2.160,��,8.2,�L
2014/12/20,17:20,1.997,3.645,3.945,3.580,3.773,1.160,1.908,2.160,��,7.1,�L
2014/12/20,17:30,1.998,3.640,3.947,3.578,3.768,1.162,1.907,2.162,��,7.1,��
2014/12/20,17:40,1.995,3.637,3.945,3.575,3.765,1.160,1.907,2.162,��,6.1,�L
2014/12/20,17:50,1.997,3.635,3.942,3.575,3.760,1.160,1.908,2.160,��쐼,6.5,�L
2014/12/20,18:00,1.995,3.627,3.932,3.573,3.755,1.160,1.907,2.160,��쐼,6.7,�L
2014/12/20,18:10,1.997,3.622,3.930,3.573,3.750,1.157,1.907,2.158,��쐼,6.0,�L
2014/12/20,18:20,1.993,3.618,3.927,3.570,3.750,1.160,1.907,2.155,��쐼,6.4,�L
2014/12/20,18:30,1.995,3.620,3.925,3.570,3.745,1.160,1.907,2.157,��,6.8,�L
2014/12/20,18:40,1.993,3.612,3.918,3.565,3.743,1.160,1.905,2.155,��,6.9,�L
2014/12/20,18:50,1.992,3.602,3.913,3.560,3.730,1.157,1.903,2.152,��,7.4,�L
2014/12/20,19:00,1.988,3.577,3.887,3.545,3.703,1.153,1.900,2.148,��,6.8,�L
2014/12/20,19:10,1.983,3.542,3.860,3.527,3.673,1.153,1.897,2.145,��,6.0,�L
2014/12/20,19:20,1.972,3.505,3.830,3.505,3.647,1.150,1.892,2.138,��,6.0,�L
2014/12/20,19:30,1.960,3.480,3.812,3.490,3.625,1.148,1.883,2.132,��,4.9,�L
2014/12/20,19:40,1.952,3.462,3.790,3.480,3.603,1.145,1.882,2.130,��,6.0,�L
2014/12/20,19:50,1.947,3.448,3.787,3.465,3.592,1.143,1.880,2.128,��,4.5,�L
2014/12/20,20:00,1.943,3.443,3.773,3.455,3.585,1.142,1.878,2.125,��,2.3,�L
2014/12/20,20:10,1.938,3.437,3.767,3.448,3.578,1.138,1.877,2.127,�쐼,1.2,�L
2014/12/20,20:20,1.932,3.427,3.757,3.440,3.565,1.138,1.873,2.122,-,CALM,�L
2014/12/20,20:30,1.927,3.422,3.750,3.432,3.557,1.138,1.870,2.118,�k�k��,2.4,�L
2014/12/20,20:40,1.927,3.417,3.742,3.422,3.550,1.135,1.868,2.118,�k,2.1,�L
2014/12/20,20:50,1.927,3.415,3.738,3.415,3.545,1.137,1.867,2.118,�k,3.8,�L
2014/12/20,21:00,1.918,3.400,3.728,3.403,3.527,1.130,1.863,2.117,�k,4.9,�L
2014/12/20,21:10,1.917,3.390,3.712,3.390,3.515,1.132,1.858,2.112,�k,5.1,�L
2014/12/20,21:20,1.905,3.375,3.702,3.378,3.493,1.128,1.853,2.110,�k�k��,6.3,�L
2014/12/20,21:30,1.907,3.387,3.718,3.388,3.505,1.130,1.858,2.113,�k�k��,8.6,�L
2014/12/20,21:40,1.903,3.365,3.697,3.375,3.483,1.123,1.852,2.110,�k��,7.9,�L
2014/12/20,21:50,1.883,3.312,3.657,3.345,3.423,1.117,1.840,2.100,�k��,8.8,�L
2014/12/20,22:00,1.890,3.345,3.682,3.362,3.442,1.120,1.842,2.098,���k��,10.2,�L
2014/12/20,22:10,1.903,3.367,3.698,3.377,3.460,1.123,1.847,2.103,���k��,8.8,�L
2014/12/20,22:20,1.908,3.383,3.703,3.383,3.468,1.127,1.848,2.107,���k��,8.3,�L
2014/12/20,22:30,1.912,3.390,3.712,3.388,3.473,1.128,1.852,2.112,�k��,8.5,�L
2014/12/20,22:40,1.922,3.410,3.725,3.397,3.492,1.130,1.853,2.110,�k��,6.3,��
2014/12/20,22:50,1.925,3.420,3.743,3.407,3.508,1.133,1.853,2.112,�k��,8.5,�L
2014/12/20,23:00,1.928,3.428,3.750,3.413,3.523,1.133,1.860,2.115,�k��,6.6,��
2014/12/20,23:10,1.933,3.438,3.760,3.415,3.528,1.133,1.862,2.113,�k��,9.1,�L
2014/12/20,23:20,1.935,3.445,3.765,3.430,3.535,1.133,1.863,2.115,�k��,9.9,��
2014/12/20,23:30,1.935,3.450,3.772,3.435,3.543,1.133,1.867,2.115,�k��,11.0,��
2014/12/20,23:40,1.938,3.460,3.778,3.437,3.550,1.133,1.867,2.115,���k��,11.0,��
2014/12/20,23:50,1.937,3.463,3.778,3.440,3.557,1.135,1.867,2.117,�k��,7.9,��
